Погода в Белой Берёзке

Россия / Брянская область     52°22′57″N   33°28′45″E
темп.,
°C
ветер,
м/с
пор.,
м/с
влажн.,
%
обл.,
%
осадки,
мм/ч
давл.,
гПа
погр.,
м
19 января, ср
ср1900:00−9ссз7148993 0.0 1020488
03:00−11ссз5129355 0.0 1022298
06:00−15сз399736 0.0 1023131
09:00−15сз2497100 0.0 102358
12:00−8зсз248956 0.0 1022168
15:00−6зюз359085 0.0 1021252
18:00−7ююз3795100 0.0 1019139
21:00−8ююз38955 0.1 1018126
20 января, чт
чт2000:00−9ююз3997100 0.0 1017132
03:00−6ююз4897100 0.0 1015190
06:00−4ююз41096100 0.0 1012295
09:00−4ю51196100 0.1 1011362
12:00−2ю71395100 0.1 1009678
15:00−1ю81493100 0.2 1006678
18:00−2ююз71487100 0.0 1005685
21:00−3ююз71496100 0.7 1004600
21 января, пт
пт2100:00−2ююз51095100 0.3 1004610
03:00−5ю4893100 0.3 1004124
06:00−3ю51196100 0.4 1002600
09:00−3юз4995100 2.0 1002550
12:00−5юз6119297 0.1 1002613
15:00−3ююз71190100 0.1 1001900
18:00−4ююз71493100 0.3 1000712
21:00−4ююз61395100 1.3 1000553
22 января, сб
сб2200:00−3юз61196100 0.7 1000601
03:00−4юз51096100 0.9 1002432
06:00−3юз51097100 0.8 1003543
09:00−5ююз499697 1.3 1005294
12:00−3юз3594100 0.3 1008391
15:00−3ю2492100 0.5 1009378
18:00−5юв239899 0.3 101263
21:00−5юв359798 0.7 1014129
23 января, вс
вс2300:00−7юв249768 0.1 101675
03:00−13вюв22100100 0.2 101930
06:00−13вюв2298100 0.1 102133
09:00−12вюв249791 0.2 102475
12:00−8вюв239483 0.1 1026165
15:00−5всв239395 0.1 1027290
18:00−7св359498 0.0 102999
21:00−14св339863 0.1 103139